| time (UTC) | temp F | wind direction | speed MPH | gust MPH | rain 1hr in | rain 24hr in | rain mn in | humidity % | barometer mb |
| 20260505195701 | 74 | 284 | 8.0 | 18.0 | 0.00 | 0.00 | 0.00 | 33 | 1014.3 |
| 20260505195202 | 74 | 313 | 9.0 | 24.0 | 0.00 | 0.00 | 0.00 | 33 | 1014.4 |
| 20260505194702 | 73 | 307 | 10.0 | 24.0 | 0.00 | 0.00 | 0.00 | 33 | 1014.4 |
| 20260505194427 | 73 | 308 | 11.0 | 20.0 | 0.00 | 0.00 | 0.00 | 33 | 1014.6 |
| 20260505193702 | 73 | 283 | 10.0 | 20.0 | 0.00 | 0.00 | 0.00 | 33 | 1014.5 |
| 20260505193202 | 75 | 284 | 10.0 | 20.0 | 0.00 | 0.00 | 0.00 | 31 | 1014.5 |
| 20260505192702 | 74 | 255 | 10.0 | 21.0 | 0.00 | 0.00 | 0.00 | 32 | 1014.5 |
| 20260505192202 | 75 | 247 | 13.0 | 27.0 | 0.00 | 0.00 | 0.00 | 31 | 1014.5 |
| 20260505191701 | 74 | 222 | 14.0 | 27.0 | 0.00 | 0.00 | 0.00 | 31 | 1014.5 |
| 20260505191202 | 74 | 240 | 13.0 | 26.0 | 0.00 | 0.00 | 0.00 | 31 | 1014.5 |
| 20260505190701 | 74 | 286 | 13.0 | 26.0 | 0.00 | 0.00 | 0.00 | 31 | 1014.6 |
| 20260505190201 | 73 | 285 | 12.0 | 26.0 | 0.00 | 0.00 | 0.00 | 31 | 1014.5 |
| 20260505185702 | 73 | 202 | 10.0 | 25.0 | 0.00 | 0.00 | 0.00 | 31 | 1014.5 |
| 20260505185202 | 73 | 254 | 11.0 | 21.0 | 0.00 | 0.00 | 0.00 | 30 | 1014.4 |
| 20260505184701 | 73 | 272 | 11.0 | 21.0 | 0.00 | 0.00 | 0.00 | 30 | 1014.3 |
| 20260505184201 | 73 | 279 | 10.0 | 18.0 | 0.00 | 0.00 | 0.00 | 30 | 1014.5 |
| 20260505184139 | 74 | 287 | 10.0 | 18.0 | 0.00 | 0.00 | 0.00 | 29 | 1014.6 |
| 20260505183202 | 74 | 267 | 10.0 | 24.0 | 0.00 | 0.00 | 0.00 | 29 | 1014.5 |
| 20260505182703 | 74 | 259 | 9.0 | 24.0 | 0.00 | 0.00 | 0.00 | 29 | 1014.5 |
| 20260505182201 | 73 | 224 | 12.0 | 23.0 | 0.00 | 0.00 | 0.00 | 29 | 1014.5 |
| 20260505181701 | 73 | 251 | 13.0 | 23.0 | 0.00 | 0.00 | 0.00 | 30 | 1014.7 |
| 20260505181201 | 74 | 255 | 10.0 | 20.0 | 0.00 | 0.00 | 0.00 | 30 | 1014.5 |
| 20260505180701 | 74 | 236 | 9.0 | 20.0 | 0.00 | 0.00 | 0.00 | 30 | 1014.4 |
| 20260505180201 | 74 | 257 | 11.0 | 25.0 | 0.00 | 0.00 | 0.00 | 31 | 1014.4 |
| 20260505175701 | 73 | 225 | 12.0 | 25.0 | 0.00 | 0.00 | 0.00 | 31 | 1014.4 |
| 20260505175201 | 73 | 246 | 10.0 | 19.0 | 0.00 | 0.00 | 0.00 | 31 | 1014.7 |
| 20260505174701 | 73 | 299 | 9.0 | 20.0 | 0.00 | 0.00 | 0.00 | 32 | 1014.6 |
| 20260505174201 | 73 | 252 | 8.0 | 20.0 | 0.00 | 0.00 | 0.00 | 32 | 1015.0 |
| 20260505174143 | 73 | 290 | 6.0 | 20.0 | 0.00 | 0.00 | 0.00 | 33 | 1014.9 |
| 20260505173421 | 72 | 280 | 8.0 | 21.0 | 0.00 | 0.00 | 0.00 | 34 | 1015.0 |
| 20260505172701 | 72 | 259 | 9.0 | 21.0 | 0.00 | 0.00 | 0.00 | 34 | 1015.0 |
| 20260505172201 | 72 | 284 | 7.0 | 15.0 | 0.00 | 0.00 | 0.00 | 35 | 1014.9 |
| 20260505171701 | 71 | 255 | 6.0 | 14.0 | 0.00 | 0.00 | 0.00 | 36 | 1014.9 |
| 20260505171200 | 70 | 236 | 6.0 | 14.0 | 0.00 | 0.00 | 0.00 | 36 | 1015.0 |
| 20260505170920 | 70 | 273 | 6.0 | 14.0 | 0.00 | 0.00 | 0.00 | 37 | 1015.0 |
| 20260505170156 | 70 | 269 | 6.0 | 14.0 | 0.00 | 0.00 | 0.00 | 36 | 1015.0 |
| 20260505170143 | 69 | 253 | 6.0 | 9.0 | 0.00 | 0.00 | 0.00 | 37 | 1014.9 |
| 20260505165417 | 69 | 199 | 6.0 | 14.0 | 0.00 | 0.00 | 0.00 | 37 | 1014.9 |
| 20260505164920 | 69 | 225 | 6.0 | 14.0 | 0.00 | 0.00 | 0.00 | 37 | 1014.7 |
| 20260505164417 | 69 | 228 | 7.0 | 17.0 | 0.00 | 0.00 | 0.00 | 37 | 1014.7 |
| 20260505163652 | 69 | 222 | 6.0 | 17.0 | 0.00 | 0.00 | 0.00 | 36 | 1015.0 |
| 20260505163152 | 69 | 258 | 3.0 | 10.0 | 0.00 | 0.00 | 0.00 | 37 | 1014.9 |
| 20260505162652 | 68 | 261 | 2.0 | 6.0 | 0.00 | 0.00 | 0.00 | 37 | 1014.9 |
| 20260505162152 | 68 | 102 | 3.0 | 9.0 | 0.00 | 0.00 | 0.00 | 39 | 1014.7 |
| 20260505161652 | 68 | 108 | 5.0 | 9.0 | 0.00 | 0.00 | 0.00 | 39 | 1014.9 |
| 20260505161152 | 67 | 117 | 3.0 | 8.0 | 0.00 | 0.00 | 0.00 | 40 | 1015.0 |
| 20260505160652 | 67 | 134 | 2.0 | 7.0 | 0.00 | 0.00 | 0.00 | 41 | 1015.0 |
| 20260505160151 | 67 | 122 | 4.0 | 11.0 | 0.00 | 0.00 | 0.00 | 42 | 1014.9 |
| 20260505153144 | 65 | 90 | 2.0 | 7.0 | 0.00 | 0.00 | 0.00 | 43 | 1014.7 |
| 20260505152644 | 65 | 42 | 2.0 | 5.0 | 0.00 | 0.00 | 0.00 | 44 | 1014.6 |
| 20260505152142 | 64 | 191 | 1.0 | 6.0 | 0.00 | 0.00 | 0.00 | 45 | 1014.7 |
| 20260505151907 | 64 | 108 | 2.0 | 6.0 | 0.00 | 0.00 | 0.00 | 46 | 1014.7 |
| 20260505151143 | 64 | 50 | 2.0 | 7.0 | 0.00 | 0.00 | 0.00 | 46 | 1014.9 |
| 20260505150642 | 63 | 20 | 3.0 | 7.0 | 0.00 | 0.00 | 0.00 | 47 | 1014.7 |
| 20260505150137 | 63 | 82 | 3.0 | 7.0 | 0.00 | 0.00 | 0.00 | 47 | 1014.7 |
| 20260505140638 | 65 | 42 | 5.0 | 12.0 | 0.00 | 0.00 | 0.00 | 43 | 1015.1 |
| 20260505140400 | 65 | 30 | 6.0 | 18.0 | 0.00 | 0.00 | 0.00 | 41 | 1015.2 |
| 20260505130130 | 64 | 41 | 3.0 | 8.0 | 0.00 | 0.00 | 0.00 | 43 | 1014.6 |
| 20260505124630 | 64 | 12 | 5.0 | 12.0 | 0.00 | 0.00 | 0.00 | 43 | 1014.4 |
| 20260505124354 | 64 | 316 | 7.0 | 17.0 | 0.00 | 0.00 | 0.00 | 43 | 1014.2 |
| 20260505123630 | 64 | 339 | 8.0 | 17.0 | 0.00 | 0.00 | 0.00 | 44 | 1014.3 |
| 20260505123129 | 63 | 336 | 8.0 | 14.0 | 0.00 | 0.00 | 0.00 | 44 | 1014.3 |
| 20260505122629 | 64 | 320 | 8.0 | 16.0 | 0.00 | 0.00 | 0.00 | 43 | 1014.3 |
| 20260505122130 | 64 | 312 | 8.0 | 16.0 | 0.00 | 0.00 | 0.00 | 43 | 1014.2 |
| 20260505121851 | 64 | 327 | 9.0 | 18.0 | 0.00 | 0.00 | 0.00 | 43 | 1014.2 |
| 20260505121129 | 63 | 329 | 9.0 | 18.0 | 0.00 | 0.00 | 0.00 | 43 | 1013.8 |
| 20260505120629 | 63 | 335 | 8.0 | 18.0 | 0.00 | 0.00 | 0.00 | 43 | 1013.7 |
| 20260505120130 | 64 | 329 | 10.0 | 20.0 | 0.00 | 0.00 | 0.00 | 43 | 1013.8 |
| 20260505115629 | 64 | 313 | 12.0 | 21.0 | 0.00 | 0.00 | 0.00 | 42 | 1013.7 |
| 20260505115129 | 64 | 305 | 12.0 | 21.0 | 0.00 | 0.00 | 0.00 | 42 | 1013.7 |
| 20260505114632 | 64 | 316 | 13.0 | 24.0 | 0.00 | 0.00 | 0.00 | 41 | 1013.7 |
| 20260505114350 | 64 | 314 | 12.0 | 24.0 | 0.00 | 0.00 | 0.00 | 42 | 1013.8 |
| 20260505113629 | 64 | 304 | 12.0 | 19.0 | 0.00 | 0.00 | 0.00 | 41 | 1013.6 |
| 20260505113129 | 64 | 312 | 12.0 | 24.0 | 0.00 | 0.00 | 0.00 | 41 | 1013.3 |
| 20260505112629 | 64 | 290 | 12.0 | 24.0 | 0.00 | 0.00 | 0.00 | 40 | 1013.5 |
| 20260505112130 | 64 | 313 | 11.0 | 20.0 | 0.00 | 0.00 | 0.00 | 40 | 1013.4 |
| 20260505111629 | 65 | 277 | 12.0 | 21.0 | 0.00 | 0.00 | 0.00 | 39 | 1013.2 |
| 20260505111129 | 65 | 294 | 14.0 | 27.0 | 0.00 | 0.00 | 0.00 | 39 | 1012.9 |
| 20260505110630 | 65 | 299 | 15.0 | 27.0 | 0.00 | 0.00 | 0.00 | 38 | 1012.9 |
| 20260505110356 | 65 | 294 | 15.0 | 24.0 | 0.00 | 0.00 | 0.00 | 38 | 1012.9 |
| 20260505101607 | 67 | 294 | 14.0 | 29.0 | 0.00 | 0.00 | 0.00 | 31 | 1012.9 |
| 20260505101107 | 67 | 332 | 14.0 | 29.0 | 0.00 | 0.00 | 0.00 | 32 | 1012.8 |
| 20260505100607 | 66 | 284 | 14.0 | 22.0 | 0.00 | 0.00 | 0.00 | 32 | 1012.7 |
| 20260505100334 | 67 | 317 | 13.0 | 24.0 | 0.00 | 0.00 | 0.00 | 33 | 1013.1 |
| 20260505095607 | 66 | 339 | 12.0 | 24.0 | 0.00 | 0.00 | 0.00 | 33 | 1013.1 |
| 20260505095107 | 66 | 302 | 13.0 | 21.0 | 0.00 | 0.00 | 0.00 | 34 | 1013.1 |
| 20260505094830 | 66 | 334 | 13.0 | 21.0 | 0.00 | 0.00 | 0.00 | 34 | 1013.2 |
| 20260505094107 | 67 | 323 | 13.0 | 22.0 | 0.00 | 0.00 | 0.00 | 34 | 1012.9 |
| 20260505093607 | 66 | 307 | 13.0 | 24.0 | 0.00 | 0.00 | 0.00 | 34 | 1013.1 |
| 20260505093107 | 66 | 323 | 13.0 | 24.0 | 0.00 | 0.00 | 0.00 | 34 | 1012.9 |
| 20260505093051 | 67 | 285 | 13.0 | 24.0 | 0.00 | 0.00 | 0.00 | 34 | 1013.1 |
| 20260505092107 | 67 | 311 | 13.0 | 28.0 | 0.00 | 0.00 | 0.00 | 34 | 1013.1 |
| 20260505091606 | 67 | 292 | 12.0 | 28.0 | 0.00 | 0.00 | 0.00 | 33 | 1013.1 |
| 20260505091106 | 67 | 297 | 12.0 | 25.0 | 0.00 | 0.00 | 0.00 | 34 | 1013.2 |
| 20260505090606 | 67 | 308 | 12.0 | 21.0 | 0.00 | 0.00 | 0.00 | 34 | 1013.4 |
| 20260505085601 | 67 | 310 | 13.0 | 26.0 | 0.00 | 0.00 | 0.00 | 34 | 1013.5 |
| 20260505085102 | 68 | 328 | 12.0 | 23.0 | 0.00 | 0.00 | 0.00 | 33 | 1013.7 |
| 20260505084601 | 68 | 311 | 11.0 | 20.0 | 0.00 | 0.00 | 0.00 | 33 | 1013.7 |
| 20260505084324 | 68 | 323 | 11.0 | 20.0 | 0.00 | 0.00 | 0.00 | 33 | 1013.8 |
| 20260505083601 | 68 | 320 | 10.0 | 19.0 | 0.00 | 0.00 | 0.00 | 32 | 1013.6 |
| 20260505083102 | 68 | 339 | 10.0 | 20.0 | 0.00 | 0.00 | 0.00 | 31 | 1013.6 |
| 20260505082603 | 68 | 311 | 10.0 | 20.0 | 0.00 | 0.00 | 0.00 | 31 | 1013.7 |
| 20260505082319 | 69 | 313 | 9.0 | 18.0 | 0.00 | 0.00 | 0.00 | 30 | 1013.6 |
| 20260505081601 | 69 | 309 | 11.0 | 20.0 | 0.00 | 0.00 | 0.00 | 29 | 1013.6 |
| 20260505081102 | 69 | 300 | 12.0 | 20.0 | 0.00 | 0.00 | 0.00 | 29 | 1013.7 |
| 20260505080602 | 69 | 285 | 12.0 | 26.0 | 0.00 | 0.00 | 0.00 | 28 | 1013.6 |
| 20260505075601 | 69 | 300 | 9.0 | 18.0 | 0.00 | 0.00 | 0.00 | 28 | 1014.1 |
| 20260505075100 | 69 | 310 | 7.0 | 20.0 | 0.00 | 0.00 | 0.00 | 28 | 1014.2 |
| 20260505074601 | 69 | 289 | 9.0 | 20.0 | 0.00 | 0.00 | 0.00 | 27 | 1014.3 |
| 20260505074320 | 69 | 298 | 9.0 | 17.0 | 0.00 | 0.00 | 0.00 | 27 | 1014.3 |
| 20260505073601 | 69 | 298 | 8.0 | 17.0 | 0.00 | 0.00 | 0.00 | 26 | 1014.3 |
| 20260505073101 | 70 | 300 | 8.0 | 15.0 | 0.00 | 0.00 | 0.00 | 26 | 1014.2 |
| 20260505072601 | 70 | 292 | 8.0 | 13.0 | 0.00 | 0.00 | 0.00 | 26 | 1014.2 |
| 20260505072101 | 70 | 285 | 7.0 | 17.0 | 0.00 | 0.00 | 0.00 | 25 | 1014.2 |
| 20260505071601 | 71 | 308 | 8.0 | 17.0 | 0.00 | 0.00 | 0.00 | 25 | 1014.2 |
| 20260505071101 | 71 | 323 | 7.0 | 17.0 | 0.00 | 0.00 | 0.00 | 24 | 1014.2 |
| 20260505070601 | 71 | 309 | 7.0 | 16.0 | 0.00 | 0.00 | 0.00 | 24 | 1014.0 |
| 20260505070101 | 71 | 300 | 7.0 | 16.0 | 0.00 | 0.00 | 0.00 | 24 | 1013.7 |
| 20260505065601 | 71 | 309 | 7.0 | 16.0 | 0.00 | 0.00 | 0.00 | 23 | 1013.8 |
| 20260505065101 | 71 | 313 | 6.0 | 16.0 | 0.00 | 0.00 | 0.00 | 23 | 1013.7 |
| 20260505064601 | 72 | 308 | 7.0 | 12.0 | 0.00 | 0.00 | 0.00 | 23 | 1013.7 |
| 20260505064102 | 72 | 311 | 9.0 | 19.0 | 0.00 | 0.00 | 0.00 | 23 | 1013.6 |
| 20260505063601 | 72 | 309 | 11.0 | 20.0 | 0.00 | 0.00 | 0.00 | 22 | 1013.5 |
| 20260505063101 | 72 | 321 | 10.0 | 20.0 | 0.00 | 0.00 | 0.00 | 22 | 1013.6 |
| 20260505062826 | 72 | 275 | 11.0 | 18.0 | 0.00 | 0.00 | 0.00 | 22 | 1013.6 |
| 20260505062101 | 73 | 321 | 12.0 | 22.0 | 0.00 | 0.00 | 0.00 | 21 | 1013.6 |
| 20260505061601 | 73 | 290 | 10.0 | 22.0 | 0.00 | 0.00 | 0.00 | 21 | 1013.7 |
| 20260505061101 | 73 | 306 | 9.0 | 18.0 | 0.00 | 0.00 | 0.00 | 21 | 1013.5 |
| 20260505060601 | 73 | 311 | 10.0 | 25.0 | 0.00 | 0.00 | 0.00 | 21 | 1013.6 |
| 20260505055601 | 73 | 310 | 12.0 | 20.0 | 0.00 | 0.00 | 0.00 | 21 | 1013.6 |
| 20260505055324 | 73 | 319 | 11.0 | 24.0 | 0.00 | 0.00 | 0.00 | 21 | 1013.7 |
| 20260505054601 | 73 | 275 | 11.0 | 24.0 | 0.00 | 0.00 | 0.00 | 21 | 1013.6 |
| 20260505054102 | 73 | 301 | 12.0 | 21.0 | 0.00 | 0.00 | 0.00 | 21 | 1013.8 |
| 20260505053601 | 73 | 310 | 14.0 | 25.0 | 0.00 | 0.00 | 0.00 | 21 | 1013.7 |
| 20260505053102 | 73 | 299 | 14.0 | 26.0 | 0.00 | 0.00 | 0.00 | 21 | 1013.8 |
| 20260505053044 | 73 | 272 | 13.0 | 26.0 | 0.00 | 0.00 | 0.00 | 21 | 1013.7 |
| 20260505052101 | 73 | 309 | 12.0 | 22.0 | 0.00 | 0.00 | 0.00 | 20 | 1013.7 |
| 20260505051601 | 73 | 316 | 11.0 | 23.0 | 0.00 | 0.00 | 0.00 | 20 | 1013.7 |
| 20260505051552 | 74 | 301 | 12.0 | 23.0 | 0.00 | 0.00 | 0.00 | 20 | 1013.8 |
| 20260505050603 | 74 | 320 | 14.0 | 25.0 | 0.00 | 0.00 | 0.00 | 20 | 1013.8 |
| 20260505041601 | 76 | 254 | 12.0 | 27.0 | 0.00 | 0.00 | 0.00 | 16 | 1013.5 |
| 20260505041101 | 76 | 324 | 12.0 | 27.0 | 0.00 | 0.00 | 0.00 | 17 | 1013.3 |
| 20260505040601 | 76 | 284 | 10.0 | 27.0 | 0.00 | 0.00 | 0.00 | 17 | 1013.4 |
| 20260505035600 | 77 | 310 | 10.0 | 17.0 | 0.00 | 0.00 | 0.00 | 20 | 1013.4 |
| 20260505035102 | 77 | 297 | 13.0 | 20.0 | 0.00 | 0.00 | 0.00 | 21 | 1013.3 |
| 20260505034601 | 77 | 239 | 14.0 | 23.0 | 0.00 | 0.00 | 0.00 | 21 | 1013.2 |
| 20260505034101 | 77 | 274 | 12.0 | 23.0 | 0.00 | 0.00 | 0.00 | 21 | 1013.1 |
| 20260505033601 | 78 | 284 | 13.0 | 24.0 | 0.00 | 0.00 | 0.00 | 21 | 1013.1 |
| 20260505033328 | 78 | 302 | 13.0 | 24.0 | 0.00 | 0.00 | 0.00 | 21 | 1013.1 |
| 20260505032900 | 78 | 273 | 12.0 | 24.0 | 0.00 | 0.00 | 0.00 | 21 | 1012.8 |
| 20260505032850 | 78 | 241 | 12.0 | 22.0 | 0.00 | 0.00 | 0.00 | 20 | 1013.1 |
| 20260505032838 | 78 | 253 | 11.0 | 23.0 | 0.00 | 0.00 | 0.00 | 21 | 1012.9 |
| 20260505032828 | 78 | 263 | 11.0 | 23.0 | 0.00 | 0.00 | 0.00 | 21 | 1012.9 |
| 20260505031101 | 78 | 273 | 12.0 | 24.0 | 0.00 | 0.00 | 0.00 | 21 | 1012.8 |
| 20260505030601 | 78 | 260 | 13.0 | 24.0 | 0.00 | 0.00 | 0.00 | 21 | 1013.1 |
| 20260505030325 | 78 | 242 | 14.0 | 23.0 | 0.00 | 0.00 | 0.00 | 21 | 1012.8 |
| 20260505025601 | 78 | 279 | 12.0 | 21.0 | 0.00 | 0.00 | 0.00 | 21 | 1012.9 |
| 20260505025323 | 78 | 257 | 11.0 | 19.0 | 0.00 | 0.00 | 0.00 | 20 | 1012.8 |
| 20260505024824 | 78 | 271 | 11.0 | 19.0 | 0.00 | 0.00 | 0.00 | 20 | 1012.8 |
| 20260505024328 | 78 | 263 | 12.0 | 21.0 | 0.00 | 0.00 | 0.00 | 20 | 1012.6 |
| 20260505023601 | 78 | 266 | 11.0 | 21.0 | 0.00 | 0.00 | 0.00 | 20 | 1012.6 |
| 20260505023100 | 78 | 254 | 11.0 | 21.0 | 0.00 | 0.00 | 0.00 | 20 | 1012.6 |
| 20260505022602 | 78 | 267 | 11.0 | 21.0 | 0.00 | 0.00 | 0.00 | 20 | 1012.5 |
| 20260505022101 | 79 | 257 | 11.0 | 20.0 | 0.00 | 0.00 | 0.00 | 19 | 1012.5 |
| 20260505021558 | 79 | 261 | 12.0 | 25.0 | 0.00 | 0.00 | 0.00 | 19 | 1012.5 |
| 20260505021547 | 79 | 257 | 12.0 | 25.0 | 0.00 | 0.00 | 0.00 | 19 | 1012.4 |
| 20260505020557 | 79 | 327 | 9.0 | 21.0 | 0.00 | 0.00 | 0.00 | 19 | 1012.5 |
| 20260505020055 | 79 | 267 | 8.0 | 18.0 | 0.00 | 0.00 | 0.00 | 19 | 1012.5 |
| 20260505015555 | 79 | 271 | 11.0 | 18.0 | 0.00 | 0.00 | 0.00 | 19 | 1012.2 |
| 20260505015056 | 79 | 258 | 11.0 | 19.0 | 0.00 | 0.00 | 0.00 | 19 | 1012.2 |
| 20260505014553 | 79 | 263 | 11.0 | 19.0 | 0.00 | 0.00 | 0.00 | 19 | 1012.0 |
| 20260505014052 | 80 | 281 | 10.0 | 23.0 | 0.00 | 0.00 | 0.00 | 19 | 1011.9 |
| 20260505013552 | 80 | 240 | 11.0 | 23.0 | 0.00 | 0.00 | 0.00 | 19 | 1012.2 |
| 20260505013314 | 80 | 278 | 12.0 | 25.0 | 0.00 | 0.00 | 0.00 | 18 | 1012.0 |
| 20260505012548 | 80 | 258 | 12.0 | 25.0 | 0.00 | 0.00 | 0.00 | 18 | 1012.0 |
| 20260505012049 | 80 | 257 | 13.0 | 24.0 | 0.00 | 0.00 | 0.00 | 18 | 1012.0 |
| 20260505011549 | 80 | 226 | 12.0 | 24.0 | 0.00 | 0.00 | 0.00 | 18 | 1011.8 |
| 20260505011047 | 80 | 229 | 10.0 | 23.0 | 0.00 | 0.00 | 0.00 | 18 | 1011.9 |
| 20260505010547 | 80 | 295 | 9.0 | 18.0 | 0.00 | 0.00 | 0.00 | 18 | 1011.9 |
| 20260505010046 | 80 | 264 | 10.0 | 20.0 | 0.00 | 0.00 | 0.00 | 18 | 1011.8 |
| 20260505005546 | 80 | 278 | 10.0 | 24.0 | 0.00 | 0.00 | 0.00 | 18 | 1011.7 |
| 20260505005041 | 81 | 261 | 10.0 | 24.0 | 0.00 | 0.00 | 0.00 | 17 | 1011.9 |
| 20260505004535 | 81 | 275 | 11.0 | 18.0 | 0.00 | 0.00 | 0.00 | 17 | 1012.0 |
| 20260505004035 | 81 | 221 | 11.0 | 24.0 | 0.00 | 0.00 | 0.00 | 17 | 1012.0 |
| 20260505003535 | 81 | 258 | 11.0 | 24.0 | 0.00 | 0.00 | 0.00 | 16 | 1012.2 |
| 20260505003252 | 81 | 246 | 11.0 | 20.0 | 0.00 | 0.00 | 0.00 | 16 | 1012.4 |
| 20260505002534 | 81 | 249 | 10.0 | 20.0 | 0.00 | 0.00 | 0.00 | 16 | 1012.4 |
| 20260505002035 | 81 | 244 | 9.0 | 16.0 | 0.00 | 0.00 | 0.00 | 16 | 1012.4 |
| 20260505001759 | 81 | 242 | 11.0 | 21.0 | 0.00 | 0.00 | 0.00 | 16 | 1012.5 |
| 20260505001035 | 82 | 277 | 11.0 | 21.0 | 0.00 | 0.00 | 0.00 | 15 | 1012.5 |
| 20260505001014 | 82 | 269 | 9.0 | 19.0 | 0.00 | 0.00 | 0.00 | 15 | 1012.5 |
| 20260505000034 | 82 | 272 | 10.0 | 21.0 | 0.00 | 0.00 | 0.00 | 15 | 1012.5 |
| 20260504235536 | 82 | 288 | 12.0 | 21.0 | 0.00 | 0.00 | 0.00 | 15 | 1012.4 |
| 20260504235035 | 82 | 217 | 12.0 | 21.0 | 0.00 | 0.00 | 0.00 | 15 | 1012.6 |
| 20260504234531 | 82 | 270 | 11.0 | 21.0 | 0.00 | 0.00 | 0.00 | 15 | 1012.6 |
| 20260504234030 | 82 | 259 | 11.0 | 20.0 | 0.00 | 0.00 | 0.00 | 15 | 1012.6 |
| 20260504233532 | 82 | 263 | 12.0 | 22.0 | 0.00 | 0.00 | 0.00 | 14 | 1012.7 |
| 20260504233031 | 82 | 262 | 11.0 | 22.0 | 0.00 | 0.00 | 0.00 | 14 | 1012.6 |
| 20260504232531 | 82 | 253 | 8.0 | 22.0 | 0.00 | 0.00 | 0.00 | 14 | 1012.6 |
| 20260504232031 | 83 | 267 | 8.0 | 17.0 | 0.00 | 0.00 | 0.00 | 14 | 1012.6 |
| 20260504231530 | 83 | 235 | 11.0 | 22.0 | 0.00 | 0.00 | 0.00 | 14 | 1012.6 |
| 20260504231031 | 83 | 279 | 12.0 | 22.0 | 0.00 | 0.00 | 0.00 | 14 | 1012.6 |
| 20260504230530 | 83 | 233 | 11.0 | 20.0 | 0.00 | 0.00 | 0.00 | 14 | 1012.6 |
| 20260504230027 | 83 | 261 | 10.0 | 25.0 | 0.00 | 0.00 | 0.00 | 13 | 1012.6 |
| 20260504225527 | 84 | 252 | 10.0 | 25.0 | 0.00 | 0.00 | 0.00 | 13 | 1012.8 |
| 20260504225028 | 84 | 285 | 9.0 | 17.0 | 0.00 | 0.00 | 0.00 | 13 | 1012.7 |
| 20260504224528 | 84 | 257 | 8.0 | 16.0 | 0.00 | 0.00 | 0.00 | 13 | 1012.8 |
| 20260504224026 | 83 | 274 | 10.0 | 27.0 | 0.00 | 0.00 | 0.00 | 13 | 1012.8 |
| 20260504223527 | 83 | 257 | 11.0 | 27.0 | 0.00 | 0.00 | 0.00 | 13 | 1012.8 |
| 20260504223026 | 83 | 234 | 12.0 | 27.0 | 0.00 | 0.00 | 0.00 | 13 | 1012.7 |
| 20260504222527 | 83 | 226 | 13.0 | 27.0 | 0.00 | 0.00 | 0.00 | 13 | 1013.2 |
| 20260504222027 | 84 | 250 | 12.0 | 22.0 | 0.00 | 0.00 | 0.00 | 13 | 1013.1 |
| 20260504221526 | 84 | 237 | 11.0 | 23.0 | 0.00 | 0.00 | 0.00 | 13 | 1013.2 |
| 20260504221245 | 83 | 261 | 12.0 | 25.0 | 0.00 | 0.00 | 0.00 | 13 | 1013.1 |
| 20260504220521 | 83 | 302 | 15.0 | 33.0 | 0.00 | 0.00 | 0.00 | 13 | 1013.2 |
| 20260504220241 | 84 | 242 | 13.0 | 33.0 | 0.00 | 0.00 | 0.00 | 13 | 1013.3 |
| 20260504215519 | 84 | 225 | 13.0 | 33.0 | 0.00 | 0.00 | 0.00 | 13 | 1013.2 |
| 20260504215019 | 83 | 262 | 14.0 | 33.0 | 0.00 | 0.00 | 0.00 | 13 | 1013.2 |
| 20260504214518 | 83 | 293 | 11.0 | 21.0 | 0.00 | 0.00 | 0.00 | 13 | 1013.4 |
| 20260504214241 | 82 | 219 | 12.0 | 29.0 | 0.00 | 0.00 | 0.00 | 14 | 1013.4 |
| 20260504213516 | 82 | 296 | 13.0 | 29.0 | 0.00 | 0.00 | 0.00 | 14 | 1013.4 |
| 20260504213016 | 83 | 225 | 12.0 | 24.0 | 0.00 | 0.00 | 0.00 | 13 | 1013.3 |
| 20260504212739 | 83 | 279 | 14.0 | 26.0 | 0.00 | 0.00 | 0.00 | 14 | 1013.6 |
| 20260504212015 | 83 | 264 | 16.0 | 26.0 | 0.00 | 0.00 | 0.00 | 13 | 1013.7 |
| 20260504211514 | 84 | 246 | 14.0 | 26.0 | 0.00 | 0.00 | 0.00 | 13 | 1013.5 |
| 20260504211014 | 84 | 278 | 12.0 | 24.0 | 0.00 | 0.00 | 0.00 | 13 | 1013.7 |
| 20260504210515 | 84 | 251 | 13.0 | 24.0 | 0.00 | 0.00 | 0.00 | 13 | 1013.6 |
| 20260504210015 | 83 | 298 | 14.0 | 24.0 | 0.00 | 0.00 | 0.00 | 13 | 1014.0 |
| 20260504205515 | 84 | 290 | 14.0 | 24.0 | 0.00 | 0.00 | 0.00 | 13 | 1014.1 |
| 20260504205014 | 83 | 269 | 15.0 | 27.0 | 0.00 | 0.00 | 0.00 | 13 | 1014.1 |
| 20260504204506 | 83 | 260 | 15.0 | 27.0 | 0.00 | 0.00 | 0.00 | 13 | 1014.2 |
| 20260504204002 | 84 | 236 | 11.0 | 25.0 | 0.00 | 0.00 | 0.00 | 12 | 1014.3 |
| 20260504203501 | 84 | 234 | 9.0 | 20.0 | 0.00 | 0.00 | 0.00 | 13 | 1014.3 |
| 20260504203002 | 83 | 221 | 8.0 | 19.0 | 0.00 | 0.00 | 0.00 | 13 | 1014.3 |
| 20260504202502 | 84 | 233 | 8.0 | 19.0 | 0.00 | 0.00 | 0.00 | 12 | 1014.6 |
| 20260504202001 | 84 | 294 | 9.0 | 19.0 | 0.00 | 0.00 | 0.00 | 13 | 1014.5 |
| 20260504201501 | 83 | 250 | 11.0 | 21.0 | 0.00 | 0.00 | 0.00 | 13 | 1014.5 |
| 20260504201226 | 82 | 234 | 11.0 | 21.0 | 0.00 | 0.00 | 0.00 | 13 | 1014.7 |
| 20260504200501 | 82 | 211 | 12.0 | 26.0 | 0.00 | 0.00 | 0.00 | 16 | 1015.0 |
| 20260504200226 | 82 | 257 | 12.0 | 26.0 | 0.00 | 0.00 | 0.00 | 17 | 1015.1 |